PEGASUS DEB, 39309

Orbit data source: Space-Track

PEGASUS DEB, 39309 is space debris in LEO originally from a launch on Thu, 19 May 1994 UTC launched from the Air Force Western Test Range (AFWTR). Debris objects in space refer to the collection of defunct objects orbiting the Earth. Examples of debris include non-operational satellites, rocket bodies, and fragments generated from explosions, collisions, or faulty payload assembly.

Loading next visibility...
Identifier
39309, 1994-029AEU
Orbit
LEO
Country
Flag of USUS
Related business
Manufacturer
Unknown
Mission
Spacecraft
Bus & Motor
Unknown
Mass
Unknown
Launch date (UTC)
1994-05-19 (32 years ago)
Launch vehicle
Unknown
Launch site
Air Force Western Test Range (AFWTR)
Object type
Payload
Rocket body
Debris
Shape & HBR
Unknown shape, 0.1 m
Radar Cross Section
Small (<0.1 m²)

Expand to show TLE details & history
Last TLE update: 1 week ago

TLE from 1 week ago
0 PEGASUS DEB
1 39309U 94029AEU 26166.54326052  .00002881  00000-0  55341-3 0  9996
2 39309  81.7383 256.6093 0230954 201.4770 157.6616 14.47718949737431
Epoch: 2026-06-15T13:02Z
TLE epoch observation values (Epoch: 2026-06-15T13:02:17.708Z)
Latitude
-0.00005°
Longitude
157.20737°
Altitude
888.549 km
Speed
7.328 km/s
True Right ascension
17h 06m 26s
True Declination
0° 00' 00"
Sunlit
Object was in full shadow at epoch
Visualization orbit readout
Latitude
Unknown
Longitude
Unknown
Altitude
Unknown
Speed
Unknown
Apparent Right ascension
Unknown
Apparent Declination
Unknown
Sunlit
N/A
Visualization observer readout
Local Sidereal Time
07:07:42
Azimuth
Unknown
Elevation
Unknown
Doppler factor
Unknown
Orbital elements
Apogee altitude
894.377 km
Perigee altitude
566.037 km
Semi-major axis
7,108.344 km
Eccentricity
0.0231
Inclination
81.7383°
RAAN
256.6093°
Arg. of periapsis
201.477°
True anomaly
158.64125°
Mean anomaly
157.6616°
Eccentric anomaly
158.15401°
Mean motion
3.62152 °/min
Orbital period
99.41 mins
BSTAR
0.00055341
Loading maneuver chart data...
Computing Atmospheric mass density...

Documentation

Showing up to 5 results
|